Location: Ertinghausen
(51.6624°N, 9.7874°E)
Time: 11:03:39
(UTC+00:00)

Cosmos 724 - Pass Details

Date: 23 May 2024
Orbit: 864 x 930 km, 65.6° (Epoch: 23 June)

Event Time Altitude Azimuth Distance (km) Brightness Sun altitude
Exits shadow 00:12:03 23° 220° (SW) 1,791 5.4 -16.7°
Maximum altitude 00:15:54 88° 311° (NW) 883 4.3 -16.6°
Drops below altitude 10° 00:21:46 10° 41° (NE) 2,522 7.7 -16.3°
Sets 00:24:14 0° 41° (NE) 3,459 8.6 -16.2°
